Location: La Comballaz
(46.3780°N, 7.0817°E)
Time: 21:06:07
(UTC+00:00)

ITUPSAT 1 - Pass Details

Date: 03 December 2022
Orbit: 698 x 711 km, 98.5° (Epoch: 07 February)

Event Time Altitude Azimuth Distance (km) Brightness Sun altitude
Rises 06:18:09 0° 132° (SE) 3,096 ? -6.6°
Reaches altitude 10° 06:20:41 10° 120° (ESE) 2,184 ? -6.2°
Maximum altitude 06:24:40 27° 64° (ENE) 1,359 ? -5.6°
Drops below altitude 10° 06:28:40 10° 8° (N) 2,201 ? -5.0°
Sets 06:31:13 0° 356° (N) 3,126 ? -4.6°
